Regional Weather Roundup
Issued by NWS

Home | Current Version | Previous Version | Text Only | Print | Product List | Glossary On
Versions: 1 2 3 4 5 6 7 8 9 10 11 12 13 14 15 16 17 18 19 20 21 22 23 24 25 26 27 28 29 30 31 32 33 34 35 36 37 38 39 40 41 42 43 44 45 46 47 48 49 50
456
ASUS43 KBIS 041910
RWRND

NORTH DAKOTA REGIONAL WEATHER ROUNDUP
NATIONAL WEATHER SERVICE BISMARCK ND
200 PM CDT WED MAY 04 2016

NOTE: "FAIR" INDICATES FEW OR NO CLOUDS BELOW 12,000 FEET WITH NO
SIGNIFICANT WEATHER AND/OR OBSTRUCTIONS TO VISIBILITY.


NDZ001>003-009>011-017-042000-
NORTHWEST NORTH DAKOTA

CITY           SKY/WX    TMP DP  RH WIND       PRES   REMARKS
WILLISTON      SUNNY     83  38  20 SW15      29.97F
MINOT          SUNNY     84  37  18 S7        29.97F
MINOT AFB      SUNNY     80  41  24 S7        29.95F
$$

NDZ018>021-031>035-040>046-042000-
SOUTHWEST NORTH DAKOTA

CITY           SKY/WX    TMP DP  RH WIND       PRES   REMARKS
BISMARCK       SUNNY     74  38  27 VRB3      30.04F
DICKINSON      SUNNY     77  38  24 SW7       30.02F
GARRISON         N/A     77  38  24 S8        30.00F
HETTINGER ARPT SUNNY     76  40  27 SW7       30.07F
$$

NDZ004>008-012>016-024-026-027-054-042000-
NORTHEAST NORTH DAKOTA

CITY           SKY/WX    TMP DP  RH WIND       PRES   REMARKS
GRAND FORKS    MOSUNNY   64  34  32 VRB3      30.04F
GRND FRKS AFB  SUNNY     64  32  29 VRB1      30.04F
DEVILS LAKE    SUNNY     64  32  30 SW7       30.05F
$$

NDZ022-023-025-028>030-036>039-047>053-042000-
SOUTHEAST NORTH DAKOTA

CITY           SKY/WX    TMP DP  RH WIND       PRES   REMARKS
FARGO          SUNNY     66  31  27 N7        30.04F
JAMESTOWN      SUNNY     66  32  28 VRB5      30.05F
$$





USA.gov is the U.S. government's official web portal to all federal, state and local government web resources and services.